sat.trackr.live / text

‹ back to catalog

STARLINK-4324

NORAD 53085 · 2022-077AU

PAYLOAD ACTIVE UNKNOWN

§ Identity

Operator
Country
US
Launch date
2022-07-11
Launch site
AFWTR
Launch vehicle
Mass (kg)
RCS (m²)

Purposes: comms

External: N2YO · Heavens-Above · Gunter

§ Orbital elements

Epoch: 2026-05-25T01:25:13.550304Z

Period
95.64 min
Inclination
97.4537°
Eccentricity
0.0001389
Mean motion
15.05637146 rev/d
Perigee alt
548.6 km
Apogee alt
550.5 km
Semi-major
6,927.7 km
B*
-1.4473e-4
RAAN
326.0647°
Arg perigee
72.2931°
Mean anomaly
287.8448°
Rev number
21,247

§ Raw data

STARLINK-43241 53085U 22077AU  26145.05918461 -.00002145  00000+0 -14473-3 0  99962 53085  97.4537 326.0647 0001389  72.2931 287.8448 15.05637146212476

JSON: /api/v1/satellites/53085 · /tle

For live sub-satellite position, see the globe view (requires WebGL).

§ Visibility from observer

Set your observer location to see the next 7 days of passes ≥ 10°. The values pass through the URL so the page stays shareable.

No JS? Fill the form by hand. The geolocation button needs JavaScript.